Window Rock, AZ

2:20 AM MST on February 18, 2018 (GMT -0700)
Window Rock

Weather History for KRQE - August, 2013

Change the Weather History Date:

Sunday, August 11, 2013

  Actual Average Record
Temperature  
Mean Temperature 63 °F -  
Max Temperature 78 °F 82 °F 93 °F (1937)
Min Temperature 48 °F 54 °F 46 °F (2002)
Degree Days  
Heating Degree Days 2    
Growing Degree Days 13 (Base 50)    
Moisture  
Dew Point 47 °F    
Average Humidity 62    
Maximum Humidity 93    
Minimum Humidity 25    
Precipitation  
Precipitation 0.01 in - - ()
Sea Level Pressure  
Sea Level Pressure 30.05 in    
Wind  
Wind Speed 4 mph (NE)    
Max Wind Speed 17 mph    
Max Gust Speed 33 mph    
Visibility 10 miles    
Events Rain    
Averages and records for this station are not official NWS values.
T = Trace of Precipitation, MM = Missing Value Source: NWS Daily Summary

Daily Weather History Graph

Daily Weather History Graph

Search for Another Location

Airport or City:

Trip Planner

Search our weather history database for the weather conditions in past years. The results will help you decide how hot, cold, wet, or windy it might be!

Date:

Astronomy

Aug. 11, 2013 Rise Set
Actual Time 6:32 AM MDT 8:09 PM MDT
Civil Twilight 6:05 AM MDT 8:37 PM MDT
Nautical Twilight 5:32 AM MDT 9:09 PM MDT
Astronomical Twilight 4:57 AM MDT 9:44 PM MDT
Moon 11:11 AM MDT (8/11) 10:40 PM MDT (8/11)
Length of Visible Light 14h 32m
Length of Day
13h 37m
Waxing Crescent, 22% of the Moon is Illuminated
Aug 11
Waxing Crescent
Aug 14
First Quarter
Aug 20
Full
Aug 28
Last Quarter
Sep 5
New

Hourly Weather History & Observations

Time (MDT) Temp. Dew Point Humidity Pressure Visibility Wind Dir Wind Speed Gust Speed Precip Events Conditions
12:53 AM 57.0 °F 48.9 °F 74% 30.05 in 10.0 mi Variable 3.5 mph - N/A   Scattered Clouds
1:53 AM 55.9 °F 48.9 °F 77% 30.04 in 10.0 mi Calm Calm - N/A   Clear
2:53 AM 52.0 °F 48.0 °F 86% 30.10 in 10.0 mi Calm Calm - N/A   Clear
3:53 AM 51.1 °F 48.0 °F 89% 30.05 in 10.0 mi Calm Calm - N/A   Clear
4:53 AM 48.9 °F 46.9 °F 93% 30.05 in 10.0 mi Calm Calm - N/A   Clear
5:53 AM 50.0 °F 48.0 °F 93% 30.10 in 10.0 mi Calm Calm - N/A   Clear
7:53 AM 53.1 °F 48.9 °F 86% 30.13 in 10.0 mi Calm Calm - N/A   Clear
8:53 AM 60.1 °F 50.0 °F 69% 30.11 in 10.0 mi SSE 4.6 mph - N/A   Clear
9:53 AM 64.0 °F 48.0 °F 56% 30.09 in 10.0 mi SSE 4.6 mph - N/A   Clear
10:53 AM 66.9 °F 48.0 °F 51% 30.08 in 10.0 mi Variable 3.5 mph - N/A   Clear
11:53 AM 70.0 °F 45.0 °F 41% 30.05 in 10.0 mi Calm Calm - N/A   Clear
12:53 PM 72.0 °F 46.0 °F 40% 30.03 in 10.0 mi Calm Calm - N/A   Clear
1:53 PM 77.0 °F 46.0 °F 33% 29.98 in 10.0 mi Variable 3.5 mph - N/A   Clear
2:53 PM 78.1 °F 43.0 °F 29% 29.98 in 10.0 mi NE 10.4 mph 17.3 mph N/A   Clear
3:53 PM 78.1 °F 39.9 °F 25% 29.96 in 10.0 mi NE 3.5 mph 19.6 mph N/A   Clear
4:53 PM 78.1 °F 41.0 °F 27% 29.95 in 10.0 mi NNE 11.5 mph - N/A   Clear
5:53 PM 75.9 °F 39.0 °F 26% 29.94 in 10.0 mi ENE 8.1 mph 16.1 mph N/A   Scattered Clouds
6:37 PM 66.2 °F 44.6 °F 46% 30.27 in 10.0 mi SE 17.3 mph 33.4 mph N/A   Mostly Cloudy
6:53 PM 64.0 °F 45.0 °F 50% 30.04 in 10.0 mi SE 11.5 mph 26.5 mph N/A   Overcast
7:53 PM 59.0 °F 53.1 °F 81% 30.07 in 10.0 mi NNW 9.2 mph - 0.01 in Rain Light Rain
8:53 PM 59.0 °F 52.0 °F 78% 30.06 in 10.0 mi North 11.5 mph - 0.00 in   Overcast
9:53 PM 59.0 °F 51.1 °F 75% 30.06 in 10.0 mi North 15.0 mph - N/A   Mostly Cloudy
10:53 PM 57.0 °F 51.1 °F 81% 30.05 in 10.0 mi North 8.1 mph - N/A   Partly Cloudy
11:53 PM 57.9 °F 51.1 °F 78% 30.02 in 10.0 mi North 5.8 mph - N/A   Mostly Cloudy